Location: Banksville Park
(38.5557°N, 75.1182°W)
Time: 22:00:06
(UTC+00:00)

ADEOS Rocket - Pass Details

Date: 19 September 2020
Orbit: 858 x 1307 km, 98.7° (Epoch: 20 October)

Event Time Altitude Azimuth Distance (km) Brightness Sun altitude
Rises 10:10:11 0° 188° (S) 4,116 6.1 -7.8°
Reaches altitude 10° 10:13:08 10° 196° (SSW) 3,096 5.4 -7.2°
Maximum altitude 10:19:35 38° 262° (W) 1,622 3.7 -6.0°
Drops below altitude 10° 10:25:29 10° 329° (NNW) 2,822 5.2 -4.8°
Sets 10:28:05 0° 338° (NNW) 3,713 5.9 -4.3°
